#timestamp,LO_Frequency,Hit,StdDev 
1501912815.2,286046996.5,Y,0.0
1501912835.1,286046999.3,P,0.0
1501912836.0,286046999.3,P,0.0
1501912855.8,286046999.4,P,0.0
1501912875.6,286046999.4,Y,0.0
1501912895.5,286047000.5,P,0.6
1501912915.3,286047000.5,N,0.5
1501912935.2,286047000.3,N,0.5
1501912955.9,286047000.1,N,0.4
1501912975.7,286046998.1,Y,0.0
1501912995.6,286046998.6,P,0.8
1501913015.4,286046998.1,N,0.9
1501913035.3,286046998.5,N,0.8
1501913055.1,286046998.6,N,0.7
1501913056.0,286046998.6,N,0.6
1501913075.8,286046998.6,N,0.6
1501913095.7,286046998.5,N,0.6
1501913115.5,286046999.0,N,0.5
1501913135.4,286046998.3,Y,0.0
1501913155.2,286047001.1,P,1.2
1501913175.0,286046998.1,N,1.3
1501913175.9,286046998.1,N,1.2
1501913195.8,286047000.7,N,1.3
1501913215.6,286047000.3,N,1.2
1501913235.5,286047000.9,N,1.2
1501913255.3,286046998.5,N,1.2
1501913275.1,286047001.1,N,1.3
1501913295.9,286046998.8,N,1.2
1501913315.7,286046998.8,N,1.2
1501913335.6,286047000.8,N,1.2
1501913355.4,286047000.6,N,1.2
1501913375.2,286047001.2,N,1.2
1501913395.1,286046998.7,N,1.2
1501913426.0,286046998.5,E,nan
1501913435.0,286047001.2,N,0.0
1501913435.9,286047001.2,P,0.0
1501913455.8,286047000.0,P,0.6
1501913475.6,286046999.7,N,0.7
1501913495.5,286047002.7,Y,0.0
1501913515.3,286047001.2,P,0.3
1501913535.1,286047001.1,P,0.3
1501913555.9,286046998.2,P,1.2
1501913575.7,286046998.1,N,1.4
1501913595.6,286047000.7,N,1.3
1501913615.4,286047000.4,N,1.2
1501913635.2,286046999.7,N,1.1
1501913655.1,286047002.2,N,1.3
1501913656.0,286047002.2,N,1.4
1501913675.8,286047002.2,N,1.4
1501913695.6,286047002.2,N,1.4
1501913715.5,286047001.6,N,1.4
1501913735.3,286047001.4,N,1.3
1501913755.2,286047002.0,N,1.3
1501913775.9,286047001.3,N,1.3
1501913795.7,286047001.8,N,1.3
1501913815.6,286047004.0,Y,0.0
1501913835.4,286047002.7,P,0.9
1501913855.3,286047002.4,N,0.7
1501913875.1,286047004.4,P,1.2
1501913876.0,286047004.4,Y,0.0
1501913895.8,286047000.6,P,1.0
1501913915.7,286047000.7,N,0.9
1501913935.5,286046998.9,N,1.3
1501913955.4,286046998.3,N,1.5
1501913975.2,286046998.2,N,1.6
1501913995.0,286047000.8,N,1.5
1501913995.9,286047000.8,N,1.4
1501914015.8,286047000.0,N,1.3
1501914035.6,286047002.8,N,1.5
1501914055.5,286047002.2,N,1.5
1501914075.3,286047002.6,N,1.6
1501914095.1,286047001.4,N,1.5
1501914115.9,286047004.4,N,1.7
1501914135.7,286047001.3,N,1.7
1501914155.5,286047003.2,N,1.7
1501914175.4,286047004.3,N,1.8
1501914195.2,286047004.2,N,1.9
1501914215.1,286047003.8,N,1.9
1501914216.0,286047003.8,N,1.9
1501914235.8,286047004.3,N,1.9
1501914255.6,286047003.1,N,1.9
1501914275.5,286047003.8,N,1.9
1501914295.3,286047003.1,N,1.9
1501914315.2,286047006.0,Y,0.0
1501914335.0,286047002.3,P,0.1
1501914335.9,286047002.3,P,0.1
1501914355.7,286047002.0,P,0.1
1501914375.6,286047001.9,Y,0.0
1501914395.4,286047000.7,P,0.7
1501914415.3,286047000.5,N,0.7
1501914435.1,286047001.0,N,0.6
1501914455.8,286047002.6,Y,0.0
1501914475.7,286047001.1,P,0.0
1501914495.5,286046999.6,P,0.7
1501914515.4,286046999.1,N,0.9
1501914535.2,286046999.4,N,0.9
1501914555.0,286046998.6,N,1.0
1501914555.9,286046998.6,N,1.0
1501914575.8,286046998.4,N,1.0
1501914595.6,286046998.8,N,1.0
1501914615.5,286046998.3,N,1.0
1501914635.3,286046998.1,N,1.0
1501914655.1,286047001.0,N,1.1
1501914675.9,286047001.1,N,1.1
1501914695.7,286047000.7,N,1.1
1501914715.6,286047000.7,N,1.1
1501914735.4,286047000.6,N,1.1
1501914755.2,286046999.8,N,1.1
1501914775.1,286046999.9,N,1.1
1501914776.0,286046999.9,N,1.0
1501914795.8,286047001.0,N,1.0
1501914815.6,286047001.2,N,1.1
1501914835.5,286046999.0,N,1.1
1501914855.3,286046998.7,N,1.1
1501914875.2,286046998.6,N,1.1
1501914895.0,286046998.5,N,1.1
1501914895.9,286046998.5,N,1.1
1501914915.7,286047001.1,N,1.1
1501914935.6,286047001.0,N,1.1
1501914955.4,286046999.4,N,1.1
1501914975.3,286046999.1,N,1.1
1501914995.1,286047000.7,N,1.0
1501915015.8,286046998.1,N,1.1
1501915035.7,286046998.6,N,1.1
1501915055.5,286047000.7,N,1.1
1501915075.4,286047000.9,N,1.1
1501915095.2,286047000.2,N,1.1
1501915115.0,286047001.1,N,1.1
1501915115.9,286047001.1,N,1.1
1501915135.8,286047000.2,N,1.1
1501915155.6,286047000.7,N,1.0
1501915175.5,286047000.8,N,1.0
1501915195.3,286047000.6,N,1.0
1501915215.1,286046999.7,N,1.0
1501915235.9,286047000.2,N,1.0
1501915255.7,286047000.4,N,0.9
1501915275.6,286047000.4,N,0.9
1501915295.4,286047000.7,N,1.0
1501915315.2,286047000.0,N,1.0
1501915335.1,286047000.9,N,1.0
1501915336.0,286047000.9,N,1.0
1501915355.8,286047000.4,N,0.9
1501915375.7,286047002.8,N,1.0
1501915395.5,286047002.8,N,1.1
1501915415.3,286047002.2,N,1.1
1501915435.2,286047002.4,N,1.1
1501915455.0,286046999.9,N,1.0
1501915455.9,286046999.9,N,1.1
1501915475.8,286047002.6,N,1.1
1501915495.6,286047000.1,N,1.1
1501915515.4,286047000.2,N,1.1
1501915535.3,286047000.3,N,1.1
1501915555.1,286047000.1,N,1.0
1501915575.9,286046999.9,N,0.9
1501915595.7,286047002.8,Y,0.0
1501915615.5,286047002.2,P,0.7
1501915635.4,286046999.8,N,1.0
1501915655.2,286047002.4,N,1.1
1501915675.0,286046999.7,N,1.1
1501915675.9,286046999.7,N,1.1
1501915695.8,286047000.1,N,1.1
1501915715.6,286047000.0,N,1.0
1501915735.5,286047002.5,N,1.2
1501915755.3,286047002.7,N,1.2
1501915775.1,286047000.4,N,1.2
1501915795.9,286047000.1,N,1.2
1501915815.7,286046999.8,N,1.2
1501915835.6,286047000.0,N,1.1
1501915855.4,286046999.8,N,1.1
1501915875.2,286047002.7,N,1.2
1501915895.1,286047000.0,N,1.2
1501915896.0,286047000.0,N,1.1
1501915915.8,286047000.0,N,1.1
1501915935.7,286047000.7,N,1.1
1501915955.5,286047000.9,N,1.1
1501915975.3,286047000.9,N,1.0
1501915995.2,286047000.9,N,1.0
1501916015.0,286047000.4,N,1.0
1501916015.9,286047000.4,N,1.0
1501916035.7,286047000.4,N,1.0
1501916055.6,286047000.5,N,1.0
1501916075.4,286047002.7,N,1.0
1501916095.3,286047002.3,N,1.0
1501916115.1,286047000.1,N,1.0
1501916135.8,286046999.7,N,1.0
1501916155.7,286047002.3,N,1.0
1501916175.5,286047002.5,N,1.1
1501916195.4,286047002.8,N,1.1
1501916215.2,286047000.2,N,1.1
1501916235.0,286047002.4,N,1.1
1501916235.9,286047002.4,N,1.1
1501916255.8,286047000.0,N,1.1
1501916275.6,286047000.1,N,1.1
1501916295.5,286047000.5,N,1.0
1501916315.3,286047000.5,N,1.0
1501916335.1,286047000.7,N,1.0
1501916355.9,286047000.1,N,1.0
1501916375.7,286046999.7,N,1.0
1501916395.6,286047002.8,N,1.1
